| time (UTC) | temp F | wind direction | speed MPH | gust MPH | rain 1hr in | rain 24hr in | rain mn in | humidity % | barometer mb |
| 20260506024431 | 60 | 192 | 11.0 | 15.0 | 0.00 | 0.00 | 0.00 | 84 | 1014.5 |
| 20260506023927 | 60 | 215 | 9.0 | 15.0 | 0.00 | 0.00 | 0.00 | 84 | 1014.8 |
| 20260506023424 | 60 | 207 | 7.0 | 8.0 | 0.00 | 0.00 | 0.00 | 84 | 1014.7 |
| 20260506022921 | 60 | 218 | 11.0 | 13.0 | 0.00 | 0.00 | 0.00 | 83 | 1014.6 |
| 20260506022419 | 60 | 238 | 13.0 | 18.0 | 0.00 | 0.00 | 0.00 | 83 | 1014.5 |
| 20260506021916 | 60 | 238 | 11.0 | 14.0 | 0.00 | 0.00 | 0.00 | 83 | 1014.6 |
| 20260506021413 | 60 | 223 | 9.0 | 10.0 | 0.00 | 0.00 | 0.00 | 82 | 1014.6 |
| 20260506020910 | 60 | 234 | 6.0 | 8.0 | 0.00 | 0.00 | 0.00 | 82 | 1014.4 |
| 20260506020408 | 60 | 264 | 5.0 | 7.0 | 0.00 | 0.00 | 0.00 | 82 | 1014.5 |
| 20260506015905 | 60 | 277 | 7.0 | 10.0 | 0.00 | 0.00 | 0.00 | 81 | 1014.7 |
| 20260506015403 | 60 | 237 | 9.0 | 15.0 | 0.00 | 0.00 | 0.00 | 81 | 1014.5 |
| 20260506014859 | 60 | 198 | 15.0 | 17.0 | 0.00 | 0.00 | 0.00 | 80 | 1014.5 |
| 20260506014356 | 60 | 194 | 10.0 | 13.0 | 0.00 | 0.00 | 0.00 | 80 | 1014.4 |
| 20260506013853 | 60 | 200 | 10.0 | 15.0 | 0.00 | 0.00 | 0.00 | 80 | 1014.6 |
| 20260506013351 | 60 | 234 | 11.0 | 17.0 | 0.00 | 0.00 | 0.00 | 80 | 1014.3 |
| 20260506012846 | 61 | 192 | 10.0 | 13.0 | 0.00 | 0.00 | 0.00 | 79 | 1014.3 |
| 20260506012343 | 61 | 218 | 11.0 | 13.0 | 0.00 | 0.00 | 0.00 | 78 | 1014.3 |
| 20260506011841 | 61 | 218 | 6.0 | 7.0 | 0.00 | 0.00 | 0.00 | 78 | 1014.1 |
| 20260506011337 | 61 | 243 | 7.0 | 9.0 | 0.00 | 0.00 | 0.00 | 78 | 1014.2 |
| 20260506010835 | 61 | 272 | 9.0 | 13.0 | 0.00 | 0.00 | 0.00 | 78 | 1014.1 |
| 20260506010333 | 61 | 224 | 9.0 | 11.0 | 0.00 | 0.00 | 0.00 | 78 | 1014.0 |
| 20260506005829 | 62 | 226 | 11.0 | 14.0 | 0.00 | 0.00 | 0.00 | 78 | 1014.0 |
| 20260506005326 | 62 | 183 | 8.0 | 11.0 | 0.00 | 0.00 | 0.00 | 76 | 1013.8 |
| 20260506004822 | 62 | 221 | 12.0 | 15.0 | 0.00 | 0.00 | 0.00 | 76 | 1013.9 |
| 20260506004320 | 62 | 222 | 13.0 | 15.0 | 0.00 | 0.00 | 0.00 | 76 | 1013.9 |
| 20260506003816 | 62 | 259 | 11.0 | 15.0 | 0.00 | 0.00 | 0.00 | 77 | 1013.9 |
| 20260506003312 | 62 | 214 | 11.0 | 17.0 | 0.00 | 0.00 | 0.00 | 77 | 1013.6 |
| 20260506002809 | 62 | 190 | 10.0 | 13.0 | 0.00 | 0.00 | 0.00 | 76 | 1013.9 |
| 20260506002306 | 62 | 214 | 7.0 | 10.0 | 0.00 | 0.00 | 0.00 | 76 | 1013.5 |
| 20260506001801 | 63 | 245 | 11.0 | 16.0 | 0.00 | 0.00 | 0.00 | 75 | 1013.6 |
| 20260506001258 | 63 | 252 | 7.0 | 10.0 | 0.00 | 0.00 | 0.00 | 75 | 1013.4 |
| 20260506000755 | 63 | 214 | 17.0 | 21.0 | 0.00 | 0.00 | 0.00 | 74 | 1013.3 |
| 20260506000254 | 63 | 264 | 10.0 | 14.0 | 0.00 | 0.00 | 0.00 | 74 | 1013.3 |
| 20260505235749 | 63 | 255 | 10.0 | 11.0 | 0.00 | 0.00 | 0.00 | 75 | 1013.2 |
| 20260505235247 | 63 | 205 | 13.0 | 15.0 | 0.00 | 0.00 | 0.00 | 75 | 1013.3 |
| 20260505234744 | 63 | 240 | 7.0 | 9.0 | 0.00 | 0.00 | 0.00 | 75 | 1013.1 |
| 20260505234241 | 63 | 235 | 13.0 | 17.0 | 0.00 | 0.00 | 0.00 | 74 | 1013.1 |
| 20260505233738 | 62 | 125 | 10.0 | 11.0 | 0.00 | 0.00 | 0.00 | 75 | 1013.0 |
| 20260505233236 | 62 | 209 | 11.0 | 14.0 | 0.00 | 0.00 | 0.00 | 75 | 1012.7 |
| 20260505232733 | 63 | 223 | 11.0 | 13.0 | 0.00 | 0.00 | 0.00 | 74 | 1012.7 |
| 20260505232230 | 63 | 230 | 19.0 | 23.0 | 0.00 | 0.00 | 0.00 | 74 | 1012.5 |
| 20260505231727 | 62 | 195 | 19.0 | 25.0 | 0.00 | 0.00 | 0.00 | 74 | 1012.5 |
| 20260505231226 | 62 | 223 | 10.0 | 13.0 | 0.00 | 0.00 | 0.00 | 75 | 1012.7 |
| 20260505230724 | 63 | 159 | 13.0 | 14.0 | 0.00 | 0.00 | 0.00 | 75 | 1012.5 |
| 20260505230220 | 63 | 206 | 14.0 | 18.0 | 0.00 | 0.00 | 0.00 | 74 | 1012.3 |
| 20260505225716 | 62 | 240 | 9.0 | 11.0 | 0.00 | 0.00 | 0.00 | 75 | 1012.4 |
| 20260505225214 | 62 | 193 | 12.0 | 14.0 | 0.00 | 0.00 | 0.00 | 75 | 1012.1 |
| 20260505224709 | 63 | 173 | 5.0 | 6.0 | 0.00 | 0.00 | 0.00 | 74 | 1012.3 |
| 20260505224207 | 63 | 271 | 11.0 | 16.0 | 0.00 | 0.00 | 0.00 | 74 | 1012.4 |
| 20260505223704 | 62 | 224 | 16.0 | 22.0 | 0.00 | 0.00 | 0.00 | 74 | 1012.2 |
| 20260505223200 | 63 | 238 | 10.0 | 13.0 | 0.00 | 0.00 | 0.00 | 75 | 1012.4 |
| 20260505222656 | 63 | 215 | 14.0 | 19.0 | 0.00 | 0.00 | 0.00 | 73 | 1012.3 |
| 20260505222152 | 63 | 171 | 8.0 | 10.0 | 0.00 | 0.00 | 0.00 | 73 | 1012.3 |
| 20260505221650 | 64 | 177 | 17.0 | 24.0 | 0.00 | 0.00 | 0.00 | 72 | 1012.2 |
| 20260505221146 | 64 | 219 | 13.0 | 17.0 | 0.00 | 0.00 | 0.00 | 71 | 1012.1 |
| 20260505220643 | 64 | 227 | 19.0 | 24.0 | 0.00 | 0.00 | 0.00 | 71 | 1012.3 |
| 20260505220141 | 64 | 260 | 11.0 | 15.0 | 0.00 | 0.00 | 0.00 | 70 | 1012.1 |
| 20260505215638 | 64 | 228 | 13.0 | 17.0 | 0.00 | 0.00 | 0.00 | 70 | 1011.9 |
| 20260505215137 | 64 | 272 | 13.0 | 19.0 | 0.00 | 0.00 | 0.00 | 71 | 1012.1 |
| 20260505214634 | 64 | 232 | 12.0 | 17.0 | 0.00 | 0.00 | 0.00 | 71 | 1012.2 |
| 20260505214131 | 64 | 193 | 16.0 | 21.0 | 0.00 | 0.00 | 0.00 | 71 | 1012.3 |
| 20260505213629 | 65 | 247 | 11.0 | 14.0 | 0.00 | 0.00 | 0.00 | 70 | 1012.1 |
| 20260505213125 | 65 | 249 | 6.0 | 8.0 | 0.00 | 0.00 | 0.00 | 70 | 1012.2 |
| 20260505212621 | 65 | 185 | 7.0 | 9.0 | 0.00 | 0.00 | 0.00 | 70 | 1011.7 |
| 20260505212119 | 65 | 206 | 12.0 | 18.0 | 0.00 | 0.00 | 0.00 | 70 | 1011.8 |
| 20260505211616 | 66 | 225 | 11.0 | 15.0 | 0.00 | 0.00 | 0.00 | 70 | 1011.8 |
| 20260505211113 | 65 | 191 | 2.0 | 3.0 | 0.00 | 0.00 | 0.00 | 71 | 1011.8 |
| 20260505210609 | 65 | 260 | 13.0 | 17.0 | 0.00 | 0.00 | 0.00 | 71 | 1011.8 |
| 20260505210106 | 65 | 196 | 5.0 | 7.0 | 0.00 | 0.00 | 0.00 | 71 | 1011.8 |
| 20260505205604 | 65 | 220 | 11.0 | 14.0 | 0.00 | 0.00 | 0.00 | 71 | 1011.8 |
| 20260505205102 | 64 | 240 | 11.0 | 17.0 | 0.00 | 0.00 | 0.00 | 72 | 1011.9 |
| 20260505204559 | 64 | 200 | 7.0 | 9.0 | 0.00 | 0.00 | 0.00 | 72 | 1011.9 |
| 20260505204056 | 65 | 231 | 14.0 | 17.0 | 0.00 | 0.00 | 0.00 | 72 | 1011.9 |
| 20260505203552 | 66 | 235 | 13.0 | 18.0 | 0.00 | 0.00 | 0.00 | 71 | 1012.1 |
| 20260505203050 | 65 | 282 | 10.0 | 11.0 | 0.00 | 0.00 | 0.00 | 71 | 1012.0 |
| 20260505202545 | 66 | 171 | 7.0 | 10.0 | 0.00 | 0.00 | 0.00 | 71 | 1011.8 |
| 20260505202041 | 66 | 215 | 12.0 | 16.0 | 0.00 | 0.00 | 0.00 | 71 | 1012.0 |
| 20260505201538 | 65 | 187 | 12.0 | 16.0 | 0.00 | 0.00 | 0.00 | 71 | 1012.0 |
| 20260505201036 | 64 | 172 | 13.0 | 15.0 | 0.00 | 0.00 | 0.00 | 72 | 1011.8 |
| 20260505200534 | 65 | 226 | 14.0 | 17.0 | 0.00 | 0.00 | 0.00 | 71 | 1012.2 |
| 20260505200031 | 66 | 233 | 10.0 | 11.0 | 0.00 | 0.00 | 0.00 | 71 | 1012.2 |
| 20260505195527 | 66 | 213 | 10.0 | 11.0 | 0.00 | 0.00 | 0.00 | 70 | 1012.4 |
| 20260505195024 | 66 | 214 | 6.0 | 8.0 | 0.00 | 0.00 | 0.00 | 70 | 1012.3 |
| 20260505194521 | 66 | 204 | 11.0 | 15.0 | 0.00 | 0.00 | 0.00 | 70 | 1012.4 |
| 20260505194016 | 67 | 232 | 12.0 | 15.0 | 0.00 | 0.00 | 0.00 | 69 | 1012.3 |
| 20260505193514 | 68 | 201 | 11.0 | 13.0 | 0.00 | 0.00 | 0.00 | 68 | 1012.4 |
| 20260505193011 | 68 | 182 | 6.0 | 8.0 | 0.00 | 0.00 | 0.00 | 68 | 1012.5 |
| 20260505192510 | 68 | 253 | 10.0 | 13.0 | 0.00 | 0.00 | 0.00 | 68 | 1012.6 |
| 20260505192007 | 67 | 190 | 10.0 | 11.0 | 0.00 | 0.00 | 0.00 | 69 | 1012.8 |
| 20260505191505 | 67 | 249 | 4.0 | 4.0 | 0.00 | 0.00 | 0.00 | 69 | 1012.8 |
| 20260505191002 | 67 | 262 | 4.0 | 7.0 | 0.00 | 0.00 | 0.00 | 69 | 1012.9 |
| 20260505190456 | 68 | 216 | 9.0 | 16.0 | 0.00 | 0.00 | 0.00 | 68 | 1013.0 |
| 20260505185953 | 68 | 184 | 3.0 | 4.0 | 0.00 | 0.00 | 0.00 | 69 | 1013.0 |
| 20260505185450 | 67 | 246 | 9.0 | 10.0 | 0.00 | 0.00 | 0.00 | 70 | 1013.6 |
| 20260505184946 | 67 | 221 | 6.0 | 7.0 | 0.00 | 0.00 | 0.00 | 69 | 1013.5 |
| 20260505184443 | 66 | 149 | 6.0 | 8.0 | 0.00 | 0.00 | 0.00 | 72 | 1013.3 |
| 20260505183940 | 66 | 212 | 8.0 | 10.0 | 0.00 | 0.00 | 0.00 | 71 | 1013.6 |
| 20260505183437 | 66 | 226 | 7.0 | 10.0 | 0.00 | 0.00 | 0.00 | 71 | 1013.6 |
| 20260505182933 | 65 | 129 | 5.0 | 8.0 | 0.00 | 0.00 | 0.00 | 73 | 1013.4 |
| 20260505182430 | 65 | 235 | 8.0 | 9.0 | 0.00 | 0.00 | 0.00 | 74 | 1013.6 |
| 20260505181926 | 66 | 184 | 8.0 | 10.0 | 0.00 | 0.00 | 0.00 | 73 | 1013.6 |
| 20260505181424 | 65 | 200 | 5.0 | 6.0 | 0.00 | 0.00 | 0.00 | 74 | 1013.8 |
| 20260505180920 | 65 | 130 | 10.0 | 15.0 | 0.00 | 0.00 | 0.00 | 73 | 1013.6 |
| 20260505180417 | 65 | 262 | 9.0 | 11.0 | 0.00 | 0.00 | 0.00 | 73 | 1013.7 |
| 20260505175914 | 66 | 167 | 10.0 | 11.0 | 0.00 | 0.00 | 0.00 | 73 | 1013.6 |
| 20260505175410 | 66 | 165 | 9.0 | 11.0 | 0.00 | 0.00 | 0.00 | 73 | 1013.8 |
| 20260505174907 | 66 | 220 | 7.0 | 13.0 | 0.00 | 0.00 | 0.00 | 74 | 1013.9 |
| 20260505174404 | 66 | 164 | 9.0 | 10.0 | 0.00 | 0.00 | 0.00 | 72 | 1014.0 |
| 20260505173900 | 66 | 164 | 7.0 | 9.0 | 0.00 | 0.00 | 0.00 | 74 | 1013.8 |
| 20260505173356 | 65 | 228 | 6.0 | 9.0 | 0.00 | 0.00 | 0.00 | 75 | 1013.8 |
| 20260505172854 | 65 | 168 | 8.0 | 9.0 | 0.00 | 0.00 | 0.00 | 75 | 1013.9 |
| 20260505172351 | 64 | 244 | 7.0 | 10.0 | 0.00 | 0.00 | 0.00 | 74 | 1014.0 |
| 20260505171850 | 64 | 174 | 8.0 | 10.0 | 0.00 | 0.00 | 0.00 | 75 | 1013.9 |
| 20260505171348 | 64 | 172 | 9.0 | 10.0 | 0.00 | 0.00 | 0.00 | 76 | 1014.2 |
| 20260505170844 | 64 | 230 | 10.0 | 14.0 | 0.00 | 0.00 | 0.00 | 76 | 1014.2 |
| 20260505170341 | 64 | 216 | 9.0 | 10.0 | 0.00 | 0.00 | 0.00 | 75 | 1014.2 |
| 20260505165836 | 64 | 190 | 6.0 | 9.0 | 0.00 | 0.00 | 0.00 | 75 | 1014.4 |
| 20260505165333 | 64 | 224 | 5.0 | 7.0 | 0.00 | 0.00 | 0.00 | 75 | 1014.1 |
| 20260505164828 | 65 | 238 | 12.0 | 15.0 | 0.00 | 0.00 | 0.00 | 74 | 1014.2 |
| 20260505164325 | 66 | 200 | 10.0 | 14.0 | 0.00 | 0.00 | 0.00 | 72 | 1014.1 |
| 20260505163823 | 68 | 191 | 7.0 | 8.0 | 0.00 | 0.00 | 0.00 | 72 | 1014.1 |
| 20260505163322 | 67 | 220 | 6.0 | 7.0 | 0.00 | 0.00 | 0.00 | 70 | 1014.2 |
| 20260505162819 | 68 | 192 | 2.0 | 6.0 | 0.00 | 0.00 | 0.00 | 71 | 1014.5 |
| 20260505162315 | 67 | 213 | 8.0 | 9.0 | 0.00 | 0.00 | 0.00 | 72 | 1014.2 |
| 20260505161813 | 66 | 215 | 7.0 | 9.0 | 0.00 | 0.00 | 0.00 | 73 | 1014.8 |
| 20260505161310 | 66 | 213 | 5.0 | 8.0 | 0.00 | 0.00 | 0.00 | 72 | 1014.5 |
| 20260505160807 | 67 | 239 | 6.0 | 7.0 | 0.00 | 0.00 | 0.00 | 72 | 1014.7 |
| 20260505160305 | 66 | 227 | 6.0 | 9.0 | 0.00 | 0.00 | 0.00 | 72 | 1014.6 |
| 20260505153244 | 66 | 141 | 5.0 | 7.0 | 0.00 | 0.00 | 0.00 | 73 | 1014.7 |
| 20260505152741 | 65 | 169 | 3.0 | 4.0 | 0.00 | 0.00 | 0.00 | 73 | 1014.8 |
| 20260505152237 | 65 | 138 | 7.0 | 8.0 | 0.00 | 0.00 | 0.00 | 75 | 1014.6 |
| 20260505151731 | 64 | 103 | 3.0 | 3.0 | 0.00 | 0.00 | 0.00 | 74 | 1014.9 |
| 20260505151229 | 65 | 215 | 6.0 | 7.0 | 0.00 | 0.00 | 0.00 | 74 | 1014.9 |
| 20260505150727 | 65 | 217 | 4.0 | 4.0 | 0.00 | 0.00 | 0.00 | 75 | 1015.1 |
| 20260505150224 | 64 | 212 | 5.0 | 6.0 | 0.00 | 0.00 | 0.00 | 75 | 1015.0 |
| 20260505140154 | 64 | 210 | 6.0 | 9.0 | 0.00 | 0.00 | 0.00 | 75 | 1014.8 |
| 20260505130117 | 62 | 202 | 5.0 | 6.0 | 0.00 | 0.00 | 0.00 | 81 | 1014.7 |
| 20260505124607 | 62 | 227 | 5.0 | 7.0 | 0.00 | 0.00 | 0.00 | 81 | 1014.6 |
| 20260505124103 | 61 | 181 | 4.0 | 4.0 | 0.00 | 0.00 | 0.00 | 82 | 1014.4 |
| 20260505123559 | 61 | 215 | 4.0 | 6.0 | 0.00 | 0.00 | 0.00 | 82 | 1014.4 |
| 20260505123056 | 60 | 230 | 4.0 | 4.0 | 0.00 | 0.00 | 0.00 | 83 | 1014.5 |
| 20260505122553 | 60 | 238 | 4.0 | 6.0 | 0.00 | 0.00 | 0.00 | 84 | 1014.5 |
| 20260505122050 | 59 | 177 | 3.0 | 3.0 | 0.00 | 0.00 | 0.00 | 86 | 1014.5 |
| 20260505121546 | 58 | 189 | 2.0 | 3.0 | 0.00 | 0.00 | 0.00 | 87 | 1014.5 |
| 20260505121043 | 58 | 143 | 2.0 | 2.0 | 0.00 | 0.00 | 0.00 | 87 | 1014.4 |
| 20260505120534 | 59 | 199 | 2.0 | 3.0 | 0.00 | 0.00 | 0.00 | 87 | 1014.5 |
| 20260505120029 | 58 | 198 | 2.0 | 2.0 | 0.00 | 0.00 | 0.00 | 88 | 1014.6 |
| 20260505115525 | 57 | 181 | 2.0 | 2.0 | 0.00 | 0.00 | 0.00 | 89 | 1014.7 |
| 20260505115023 | 58 | 186 | 2.0 | 2.0 | 0.00 | 0.00 | 0.00 | 89 | 1014.7 |
| 20260505114520 | 57 | 191 | 4.0 | 4.0 | 0.00 | 0.00 | 0.00 | 89 | 1014.6 |
| 20260505114015 | 57 | 176 | 2.0 | 2.0 | 0.00 | 0.00 | 0.00 | 90 | 1014.6 |
| 20260505113512 | 57 | 136 | 2.0 | 2.0 | 0.00 | 0.00 | 0.00 | 90 | 1014.7 |
| 20260505113008 | 57 | 180 | 4.0 | 4.0 | 0.00 | 0.00 | 0.00 | 90 | 1014.8 |
| 20260505112504 | 56 | 136 | 2.0 | 3.0 | 0.00 | 0.00 | 0.00 | 91 | 1014.6 |
| 20260505112002 | 57 | 142 | 2.0 | 3.0 | 0.00 | 0.00 | 0.00 | 91 | 1014.9 |
| 20260505111456 | 56 | 175 | 3.0 | 3.0 | 0.00 | 0.00 | 0.00 | 91 | 1014.7 |
| 20260505110953 | 56 | 96 | 1.0 | 1.0 | 0.00 | 0.00 | 0.00 | 92 | 1014.7 |
| 20260505110450 | 55 | 112 | 0.0 | 1.0 | 0.00 | 0.00 | 0.00 | 93 | 1014.8 |
| 20260505101921 | 53 | 178 | 2.0 | 2.0 | 0.00 | 0.00 | 0.00 | 96 | 1014.0 |
| 20260505101421 | 53 | 205 | 3.0 | 4.0 | 0.00 | 0.00 | 0.00 | 96 | 1014.1 |
| 20260505100916 | 53 | 179 | 2.0 | 3.0 | 0.00 | 0.00 | 0.00 | 97 | 1013.9 |
| 20260505100413 | 53 | 219 | 3.0 | 3.0 | 0.00 | 0.00 | 0.00 | 97 | 1013.6 |
| 20260505095909 | 53 | 182 | 3.0 | 4.0 | 0.00 | 0.00 | 0.00 | 97 | 1013.8 |
| 20260505095406 | 52 | 191 | 2.0 | 3.0 | 0.00 | 0.00 | 0.00 | 97 | 1013.6 |
| 20260505094903 | 52 | 184 | 2.0 | 2.0 | 0.00 | 0.00 | 0.00 | 97 | 1013.6 |
| 20260505094400 | 52 | 145 | 2.0 | 2.0 | 0.00 | 0.00 | 0.00 | 97 | 1013.5 |
| 20260505093855 | 52 | 152 | 1.0 | 2.0 | 0.00 | 0.00 | 0.00 | 97 | 1013.9 |
| 20260505093353 | 52 | 97 | 0.0 | 1.0 | 0.00 | 0.00 | 0.00 | 97 | 1013.7 |
| 20260505092850 | 52 | 104 | 0.0 | 0.0 | 0.00 | 0.00 | 0.00 | 97 | 1013.8 |
| 20260505092348 | 53 | 124 | 1.0 | 1.0 | 0.00 | 0.00 | 0.00 | 97 | 1013.6 |
| 20260505091845 | 53 | 97 | 0.0 | 0.0 | 0.00 | 0.00 | 0.00 | 96 | 1013.7 |
| 20260505091343 | 53 | 103 | 0.0 | 0.0 | 0.00 | 0.00 | 0.00 | 96 | 1013.7 |
| 20260505090841 | 53 | 184 | 1.0 | 2.0 | 0.00 | 0.00 | 0.00 | 96 | 1013.7 |
| 20260505090339 | 53 | 197 | 3.0 | 3.0 | 0.00 | 0.00 | 0.00 | 96 | 1014.0 |
| 20260505085835 | 53 | 173 | 3.0 | 3.0 | 0.00 | 0.00 | 0.00 | 96 | 1013.6 |
| 20260505085334 | 53 | 190 | 2.0 | 2.0 | 0.00 | 0.00 | 0.00 | 96 | 1013.6 |
| 20260505084831 | 53 | 219 | 5.0 | 6.0 | 0.00 | 0.00 | 0.00 | 96 | 1013.7 |
| 20260505084329 | 53 | 141 | 1.0 | 1.0 | 0.00 | 0.00 | 0.00 | 96 | 1013.8 |
| 20260505083826 | 53 | 182 | 4.0 | 6.0 | 0.00 | 0.00 | 0.00 | 96 | 1013.6 |
| 20260505083324 | 53 | 188 | 4.0 | 6.0 | 0.00 | 0.00 | 0.00 | 95 | 1013.6 |
| 20260505082820 | 53 | 214 | 3.0 | 4.0 | 0.00 | 0.00 | 0.00 | 95 | 1013.6 |
| 20260505082316 | 53 | 181 | 4.0 | 6.0 | 0.00 | 0.00 | 0.00 | 95 | 1013.7 |
| 20260505081813 | 53 | 185 | 4.0 | 7.0 | 0.00 | 0.00 | 0.00 | 95 | 1014.0 |
| 20260505081310 | 53 | 156 | 2.0 | 3.0 | 0.00 | 0.00 | 0.00 | 95 | 1013.8 |
| 20260505080806 | 53 | 190 | 2.0 | 3.0 | 0.00 | 0.00 | 0.00 | 95 | 1013.8 |
| 20260505080302 | 53 | 266 | 4.0 | 4.0 | 0.00 | 0.00 | 0.00 | 95 | 1013.9 |
| 20260505075758 | 53 | 177 | 4.0 | 4.0 | 0.00 | 0.00 | 0.00 | 95 | 1013.7 |
| 20260505075255 | 53 | 219 | 4.0 | 4.0 | 0.00 | 0.00 | 0.00 | 94 | 1013.7 |
| 20260505074752 | 53 | 172 | 4.0 | 4.0 | 0.00 | 0.00 | 0.00 | 94 | 1013.9 |
| 20260505074250 | 53 | 202 | 4.0 | 4.0 | 0.00 | 0.00 | 0.00 | 94 | 1013.5 |
| 20260505073747 | 53 | 239 | 4.0 | 4.0 | 0.00 | 0.00 | 0.00 | 94 | 1013.6 |
| 20260505073245 | 53 | 160 | 5.0 | 6.0 | 0.00 | 0.00 | 0.00 | 94 | 1013.6 |
| 20260505072741 | 53 | 201 | 5.0 | 7.0 | 0.00 | 0.00 | 0.00 | 94 | 1013.6 |
| 20260505072237 | 54 | 221 | 3.0 | 4.0 | 0.00 | 0.00 | 0.00 | 94 | 1013.6 |
| 20260505071733 | 53 | 192 | 4.0 | 4.0 | 0.00 | 0.00 | 0.00 | 94 | 1013.8 |
| 20260505071230 | 54 | 211 | 3.0 | 3.0 | 0.00 | 0.00 | 0.00 | 94 | 1013.7 |
| 20260505070728 | 54 | 187 | 4.0 | 4.0 | 0.00 | 0.00 | 0.00 | 94 | 1013.6 |
| 20260505070224 | 54 | 141 | 1.0 | 2.0 | 0.00 | 0.00 | 0.00 | 93 | 1013.5 |
| 20260505065720 | 54 | 193 | 3.0 | 4.0 | 0.00 | 0.00 | 0.00 | 93 | 1013.6 |
| 20260505065217 | 54 | 193 | 7.0 | 8.0 | 0.00 | 0.00 | 0.00 | 93 | 1013.9 |
| 20260505064714 | 54 | 175 | 4.0 | 4.0 | 0.00 | 0.00 | 0.00 | 93 | 1013.7 |
| 20260505064212 | 54 | 188 | 2.0 | 2.0 | 0.00 | 0.00 | 0.00 | 93 | 1013.9 |
| 20260505063709 | 54 | 213 | 4.0 | 4.0 | 0.00 | 0.00 | 0.00 | 93 | 1014.0 |
| 20260505063205 | 54 | 198 | 4.0 | 6.0 | 0.00 | 0.00 | 0.00 | 93 | 1013.7 |
| 20260505062701 | 54 | 229 | 4.0 | 7.0 | 0.00 | 0.00 | 0.00 | 93 | 1013.6 |
| 20260505062159 | 54 | 228 | 5.0 | 6.0 | 0.00 | 0.00 | 0.00 | 93 | 1013.8 |
| 20260505061656 | 54 | 236 | 5.0 | 7.0 | 0.00 | 0.00 | 0.00 | 93 | 1014.0 |
| 20260505061154 | 54 | 174 | 4.0 | 6.0 | 0.00 | 0.00 | 0.00 | 93 | 1014.1 |
| 20260505060651 | 54 | 198 | 3.0 | 3.0 | 0.00 | 0.00 | 0.00 | 93 | 1014.1 |
| 20260505060148 | 54 | 129 | 3.0 | 4.0 | 0.00 | 0.00 | 0.00 | 93 | 1014.2 |
| 20260505055643 | 54 | 172 | 6.0 | 7.0 | 0.00 | 0.00 | 0.00 | 93 | 1014.1 |
| 20260505055140 | 54 | 196 | 5.0 | 6.0 | 0.00 | 0.00 | 0.00 | 93 | 1014.1 |
| 20260505054637 | 54 | 209 | 6.0 | 8.0 | 0.00 | 0.00 | 0.00 | 93 | 1013.9 |
| 20260505054135 | 54 | 174 | 4.0 | 4.0 | 0.00 | 0.00 | 0.00 | 92 | 1014.3 |
| 20260505053633 | 54 | 160 | 3.0 | 3.0 | 0.00 | 0.00 | 0.00 | 92 | 1014.3 |
| 20260505053129 | 54 | 194 | 4.0 | 4.0 | 0.00 | 0.00 | 0.00 | 92 | 1014.3 |
| 20260505052626 | 54 | 201 | 3.0 | 3.0 | 0.00 | 0.00 | 0.00 | 92 | 1014.1 |
| 20260505052123 | 54 | 174 | 4.0 | 6.0 | 0.00 | 0.00 | 0.00 | 92 | 1014.3 |
| 20260505051620 | 54 | 243 | 5.0 | 7.0 | 0.00 | 0.00 | 0.00 | 92 | 1014.2 |
| 20260505051118 | 54 | 218 | 5.0 | 6.0 | 0.00 | 0.00 | 0.00 | 91 | 1014.2 |
| 20260505050616 | 55 | 152 | 4.0 | 4.0 | 0.00 | 0.00 | 0.00 | 91 | 1014.3 |
| 20260505050114 | 55 | 194 | 2.0 | 2.0 | 0.00 | 0.00 | 0.00 | 91 | 1014.2 |
| 20260505041543 | 55 | 209 | 4.0 | 6.0 | 0.00 | 0.00 | 0.00 | 88 | 1014.5 |
| 20260505041041 | 55 | 147 | 3.0 | 6.0 | 0.00 | 0.00 | 0.00 | 87 | 1014.6 |
| 20260505040538 | 55 | 89 | 2.0 | 2.0 | 0.00 | 0.00 | 0.00 | 87 | 1014.7 |
| 20260505040035 | 55 | 227 | 6.0 | 7.0 | 0.00 | 0.00 | 0.00 | 87 | 1014.4 |
| 20260505035531 | 55 | 220 | 6.0 | 7.0 | 0.00 | 0.00 | 0.00 | 87 | 1014.6 |
| 20260505035028 | 55 | 193 | 4.0 | 6.0 | 0.00 | 0.00 | 0.00 | 87 | 1014.7 |
| 20260505034524 | 55 | 218 | 5.0 | 6.0 | 0.00 | 0.00 | 0.00 | 87 | 1014.7 |
| 20260505034021 | 55 | 142 | 1.0 | 2.0 | 0.00 | 0.00 | 0.00 | 86 | 1014.3 |
| 20260505033518 | 55 | 188 | 3.0 | 3.0 | 0.00 | 0.00 | 0.00 | 86 | 1014.4 |
| 20260505033017 | 56 | 135 | 1.0 | 1.0 | 0.00 | 0.00 | 0.00 | 85 | 1014.7 |
| 20260505032514 | 56 | 202 | 3.0 | 4.0 | 0.00 | 0.00 | 0.00 | 84 | 1014.7 |
| 20260505032010 | 56 | 134 | 1.0 | 1.0 | 0.00 | 0.00 | 0.00 | 84 | 1014.7 |
| 20260505031508 | 56 | 177 | 3.0 | 4.0 | 0.00 | 0.00 | 0.00 | 83 | 1014.8 |
| 20260505031004 | 56 | 169 | 4.0 | 4.0 | 0.00 | 0.00 | 0.00 | 83 | 1014.6 |
| 20260505030501 | 57 | 216 | 2.0 | 3.0 | 0.00 | 0.00 | 0.00 | 83 | 1014.7 |
| 20260505025955 | 57 | 247 | 4.0 | 6.0 | 0.00 | 0.00 | 0.00 | 82 | 1014.6 |
| 20260505025453 | 56 | 174 | 4.0 | 4.0 | 0.00 | 0.00 | 0.00 | 83 | 1014.7 |
| 20260505024952 | 56 | 246 | 3.0 | 3.0 | 0.00 | 0.00 | 0.00 | 83 | 1014.9 |